Stations météo

Publicité
Bezier-Vias, France (7638): Température de l'air & dewpoint: 15.10.2017 10:00:00 - 21.10.2017 10:00:00 (CEST)Bezier-Vias, France (7638): Vitesse du vent & gusts: 15.10.2017 10:00:00 - 21.10.2017 10:00:00 (CEST)Bezier-Vias, France (7638): Direction du vent: 15.10.2017 10:00:00 - 21.10.2017 10:00:00 (CEST)Bezier-Vias, France (7638): reduced air pressure: 15.10.2017 10:00:00 - 21.10.2017 10:00:00 (CEST)Bezier-Vias, France (7638): visibility: 15.10.2017 10:00:00 - 21.10.2017 10:00:00 (CEST)Bezier-Vias, France (7638): Quantités de précipitations: 15.10.2017 10:00:00 - 21.10.2017 10:00:00 (CEST)
Date & Time tt [°C] td [°C] ff [km/h] ff [knt] fx [km/h] fx [knt] dd ppp [hPa] vv [km] rr [mm]
21.10.2017 10:00:00 18,4 16,9 15 8 24 13 ENE 1020,8 8 0,0
21.10.2017 09:00:00 17,6 16,6 11 6 18 10 N 1020,4 5 0,0
21.10.2017 08:00:00 18,0 17,2 9 5 20 11 NE 1019,8 6 0,0
21.10.2017 07:00:00 18,1 17,5 13 7 19 10 ENE 1019,4 4,4 0,0
21.10.2017 06:00:00 17,5 16,7 10 5 19 10 ENE 1019,1 3,9 0,0
21.10.2017 05:00:00 17,2 16,6 11 6 20 11 NNE 1019,0 4,8 0,0
21.10.2017 04:00:00 17,3 16,7 11 6 16 9 NE 1019,1 2,9 0,0
21.10.2017 03:00:00 17,8 17,0 11 6 15 8 NE 1019,5 5 0,0
21.10.2017 02:00:00 18,2 17,0 9 5 11 6 NE 1019,7 6 0,0
21.10.2017 01:00:00 18,6 17,1 5 3 9 5 ENE 1020,0 9 0,0
21.10.2017 00:00:00 18,7 17,4 5 3 10 5 NE 1020,2 8 0,0
20.10.2017 23:00:00 18,7 17,4 5 3 8 5 - 1020,3 7 0,0
20.10.2017 22:00:00 18,6 17,3 5 3 10 5 E 1020,0 8 0,0
20.10.2017 21:00:00 18,6 17,1 5 3 10 5 E 1019,8 8 0,0
20.10.2017 20:00:00 18,6 16,7 5 3 10 6 E 1019,7 10 0,0
20.10.2017 19:00:00 19,2 17,0 6 4 14 8 ESE 1018,9 12 0,0
20.10.2017 18:00:00 19,8 16,8 8 4 19 10 SE 1018,8 12 0,0
20.10.2017 17:00:00 20,1 16,5 10 5 22 12 SE 1018,9 13 0,0
20.10.2017 16:00:00 21,0 16,8 15 8 27 15 SE 1018,7 10 0,0
20.10.2017 15:00:00 21,3 16,5 15 8 26 14 SSE 1018,7 10 0,0
20.10.2017 14:00:00 21,5 16,7 13 7 24 13 SE 1018,8 10 0,0
20.10.2017 13:00:00 20,6 16,8 13 7 28 15 SE 1019,3 14 0,0
20.10.2017 12:00:00 20,5 16,7 18 10 31 17 SE 1019,0 10 0,0
20.10.2017 11:00:00 20,4 16,6 18 10 31 17 SE 1018,6 18 0,0
20.10.2017 10:00:00 18,5 15,0 9 5 14 8 NE 1018,2 20 0,0
20.10.2017 09:00:00 16,5 14,5 4 2 14 7 NNE 1017,6 24 0,0
20.10.2017 08:00:00 16,3 14,5 9 5 19 10 NE 1016,8 20 0,2
20.10.2017 07:00:00 16,8 15,3 13 7 19 11 ENE 1016,4 10 0,2
20.10.2017 06:00:00 17,0 15,0 10 6 18 10 NE 1015,8 17 0,0
20.10.2017 05:00:00 16,6 14,8 9 5 14 8 ENE 1015,4 10 0,0
20.10.2017 04:00:00 16,8 14,8 8 5 20 11 NE 1015,3 15 0,2
20.10.2017 03:00:00 17,7 14,4 13 7 18 10 ENE 1015,3 10 0,0
20.10.2017 02:00:00 18,2 15,6 11 6 28 15 E 1014,8 18 0,0
20.10.2017 01:00:00 18,3 15,4 21 11 34 19 E 1014,1 16 0,0
20.10.2017 00:00:00 18,1 15,7 16 9 24 13 E 1013,6 10 0,0
19.10.2017 23:00:00 18,3 16,1 17 9 30 16 E 1013,8 13 0,0
19.10.2017 22:00:00 18,4 16,4 21 12 34 18 E 1013,5 12 0,0
19.10.2017 21:00:00 18,4 16,6 22 12 34 18 E 1013,1 10 0,0
19.10.2017 20:00:00 18,4 16,7 21 11 31 17 E 1012,7 10 -
19.10.2017 19:00:00 18,5 16,8 18 10 32 17 ENE 1012,0 11 0,0
19.10.2017 18:00:00 18,8 17,1 23 12 38 20 ESE 1012,2 11 0,0
19.10.2017 17:00:00 18,8 17,3 20 11 55 30 ESE 1011,5 10 0,0
19.10.2017 16:00:00 18,6 17,3 26 14 49 26 ESE 1011,2 10 0,2
19.10.2017 15:00:00 18,6 17,6 18 10 51 27 SE 1011,6 7 26,1
19.10.2017 14:00:00 19,0 18,2 21 11 40 22 SE 1012,1 6 2,7
19.10.2017 13:00:00 18,6 17,3 22 12 52 28 SE 1012,7 8 13,4
19.10.2017 12:00:00 18,9 16,9 26 14 51 28 ESE 1012,7 10 0,0
19.10.2017 11:00:00 19,0 16,8 26 14 44 24 ESE 1012,5 12 0,0
19.10.2017 10:00:00 17,6 17,0 13 7 24 13 E 1012,2 10 2,6
19.10.2017 09:00:00 16,0 15,2 15 8 28 15 NE 1012,2 10 0,0
19.10.2017 08:00:00 15,9 15,3 18 10 27 15 ENE 1012,4 10 0,0
19.10.2017 07:00:00 15,5 14,9 18 10 24 13 ENE 1012,3 11 1,0
19.10.2017 06:00:00 15,9 15,1 16 9 37 20 E 1012,8 6 5,9
19.10.2017 05:00:00 16,2 14,9 22 12 55 30 SE 1012,4 6 13,8
19.10.2017 04:00:00 18,2 17,2 27 15 58 31 ESE 1011,9 2,3 3,9
19.10.2017 03:00:00 18,4 17,1 27 15 59 32 ESE 1012,3 9 0,0
19.10.2017 02:00:00 18,4 17,1 34 18 55 30 ESE 1012,1 10 0,0
19.10.2017 01:00:00 18,5 17,7 29 16 54 29 ESE 1012,7 8 9,7
19.10.2017 00:00:00 18,9 17,6 18 10 48 26 SE 1013,4 7 0,2
18.10.2017 23:00:00 19,1 17,4 24 13 47 25 ESE 1013,4 12 0,0
18.10.2017 22:00:00 19,3 17,6 25 13 44 24 ESE 1013,1 12 0,0
18.10.2017 21:00:00 19,3 17,6 25 13 42 23 ESE 1013,3 11 0,0
18.10.2017 20:00:00 19,2 17,3 24 13 50 27 ESE 1013,5 12 0,0
18.10.2017 19:00:00 19,2 17,3 28 15 54 29 ESE 1012,5 12 0,0
18.10.2017 18:00:00 19,4 17,2 28 15 46 25 ESE 1012,9 10 0,0
18.10.2017 17:00:00 20,3 17,3 28 15 50 27 ESE 1013,0 10 0,0
18.10.2017 16:00:00 20,1 17,1 26 14 49 26 E 1013,7 10 0,0
18.10.2017 15:00:00 20,0 17,2 29 16 53 28 ESE 1013,9 10 0,0
18.10.2017 14:00:00 19,9 17,1 31 17 57 31 ESE 1014,6 10 0,0
18.10.2017 13:00:00 19,8 17,2 31 17 61 33 ESE 1015,1 10 0,0
18.10.2017 12:00:00 19,1 17,1 31 17 57 31 ESE 1015,5 10 0,0
18.10.2017 11:00:00 18,9 17,2 30 16 56 30 ESE 1015,9 12 0,0
18.10.2017 10:00:00 18,5 17,2 28 15 51 28 ESE 1016,1 10 1,2
18.10.2017 09:00:00 18,5 17,2 27 14 44 24 ESE 1016,3 8 0,2
18.10.2017 08:00:00 18,6 16,9 24 13 43 23 ESE 1016,5 14 0,0
18.10.2017 07:00:00 18,5 17,0 25 13 40 22 ESE 1016,7 14 0,0
18.10.2017 06:00:00 18,6 17,1 26 14 44 24 E 1016,9 10 0,0
18.10.2017 05:00:00 19,0 17,0 26 14 41 22 E 1017,4 19 0,0
18.10.2017 04:00:00 19,0 17,0 21 12 36 20 ESE 1018,0 18 0,0
18.10.2017 03:00:00 18,8 16,9 21 12 37 20 ESE 1018,6 17 0,0
18.10.2017 02:00:00 18,9 16,9 23 12 35 19 ESE 1019,1 19 0,0
18.10.2017 01:00:00 19,1 16,7 23 12 40 21 ESE 1019,5 22 0,0
18.10.2017 00:00:00 19,1 16,7 18 10 35 19 ESE 1019,9 20 0,0
17.10.2017 23:00:00 19,1 16,9 21 11 33 18 ESE 1020,2 10 0,0
17.10.2017 22:00:00 18,8 16,9 18 10 27 15 E 1020,3 10 0,0
17.10.2017 21:00:00 18,7 16,8 18 10 32 17 E 1020,5 10 0,0
17.10.2017 20:00:00 18,6 16,6 18 10 32 17 E 1020,8 10 0,0
17.10.2017 19:00:00 18,8 16,4 22 12 35 19 E 1020,8 10 0,0
17.10.2017 18:00:00 19,0 16,2 21 11 34 18 E 1021,0 10 0,0
17.10.2017 17:00:00 19,3 16,0 24 13 35 19 E 1021,5 10 0,0
17.10.2017 16:00:00 19,6 15,7 22 12 38 21 E 1022,0 10 0,0
17.10.2017 15:00:00 20,1 15,3 26 14 40 22 E 1022,4 10 0,0
17.10.2017 14:00:00 20,5 15,5 28 15 41 22 E 1023,3 20 0,0
17.10.2017 13:00:00 18,8 15,1 26 14 34 18 E 1024,2 10 0,0
17.10.2017 12:00:00 18,9 14,8 21 11 35 19 E 1024,6 10 0,0
17.10.2017 11:00:00 18,2 15,1 21 11 35 19 E 1024,8 10 0,0
17.10.2017 10:00:00 16,3 14,8 18 10 29 16 E 1024,9 6 0,0
17.10.2017 09:00:00 16,2 15,2 17 9 31 17 E 1024,8 4,8 0,0
17.10.2017 08:00:00 16,4 15,4 21 11 31 17 E 1024,4 4,9 0,0
17.10.2017 07:00:00 16,7 15,6 16 9 24 13 E 1024,7 6 0,0
17.10.2017 06:00:00 16,6 15,6 16 9 24 13 ENE 1024,8 5 0,0
17.10.2017 05:00:00 15,9 14,6 14 7 19 10 ENE 1024,9 8 0,0
17.10.2017 04:00:00 15,7 14,2 11 6 18 10 NE 1025,2 10 0,0
17.10.2017 03:00:00 16,4 14,4 12 7 19 11 NE 1025,8 13 0,0
17.10.2017 02:00:00 17,3 15,5 12 6 16 9 NE 1026,2 14 0,0
17.10.2017 01:00:00 18,2 16,0 11 6 19 10 ENE 1026,6 10 0,0
17.10.2017 00:00:00 18,4 16,0 9 5 15 8 ENE 1026,7 21 0,0
16.10.2017 23:00:00 18,3 15,9 8 5 15 8 E 1026,6 20 0,0
16.10.2017 22:00:00 18,4 15,8 10 6 16 9 ENE 1026,5 21 0,0
16.10.2017 21:00:00 18,8 15,8 9 5 14 8 E 1026,7 24 0,0
16.10.2017 20:00:00 19,0 15,7 11 6 22 12 E 1026,7 26 0,0
16.10.2017 19:00:00 19,3 15,6 14 8 25 14 ESE 1026,5 27 0,0
16.10.2017 18:00:00 20,2 15,2 15 8 31 17 ESE 1026,6 10 0,0
16.10.2017 17:00:00 21,4 14,8 16 9 28 15 ESE 1026,5 10 0,0
16.10.2017 16:00:00 21,8 14,7 18 10 31 17 ESE 1027,0 25 0,0
16.10.2017 15:00:00 21,5 14,6 21 11 37 20 ESE 1027,2 10 0,0
16.10.2017 14:00:00 21,5 15,1 21 11 36 19 ESE 1027,8 10 0,0
16.10.2017 13:00:00 21,3 15,2 22 12 34 18 ESE 1028,2 10 0,0
16.10.2017 12:00:00 20,9 15,4 23 12 33 18 E 1028,4 20 0,0
16.10.2017 11:00:00 19,9 16,1 21 12 30 16 E 1028,3 18 0,0
16.10.2017 10:00:00 18,4 16,2 16 9 26 14 ENE 1028,2 9 0,0
16.10.2017 09:00:00 17,1 15,8 16 9 25 13 ENE 1027,3 6 0,0
16.10.2017 08:00:00 16,7 15,6 16 8 29 15 ENE 1026,8 6 0,0
16.10.2017 07:00:00 17,2 15,5 16 9 31 17 ENE 1026,7 10 0,0
16.10.2017 06:00:00 17,4 15,6 16 9 26 14 ENE 1026,5 10 0,0
16.10.2017 05:00:00 17,7 15,9 21 11 29 16 ENE 1026,3 10 0,0
16.10.2017 04:00:00 18,0 15,8 13 7 23 12 E 1026,6 10 0,0
16.10.2017 03:00:00 18,5 16,1 16 9 24 13 E 1026,9 25 0,0
16.10.2017 02:00:00 18,0 16,2 13 7 20 11 ENE 1027,1 10 0,0
16.10.2017 01:00:00 17,9 16,1 15 8 22 12 E 1027,3 21 0,0
16.10.2017 00:00:00 18,8 16,4 13 7 23 12 ENE 1027,5 10 0,0
15.10.2017 23:00:00 19,4 16,2 13 7 25 13 ESE 1027,5 10 0,0
15.10.2017 22:00:00 19,5 16,5 16 9 26 14 E 1027,5 30 0,0
15.10.2017 21:00:00 19,3 16,7 15 8 28 15 E 1027,7 10 0,0
15.10.2017 20:00:00 19,6 16,6 18 10 29 16 ESE 1027,6 30 0,0
15.10.2017 19:00:00 20,1 16,5 16 9 34 19 ESE 1027,1 10 0,0
15.10.2017 18:00:00 20,7 16,7 16 9 34 18 ESE 1027,1 10 0,0
15.10.2017 17:00:00 21,1 16,5 21 11 36 19 ESE 1027,1 10 0,0
15.10.2017 16:00:00 21,8 16,7 22 12 41 22 ESE 1027,3 10 0,0
15.10.2017 15:00:00 22,2 16,9 21 11 39 21 ESE 1027,5 26 0,0
15.10.2017 14:00:00 22,2 16,7 22 12 36 19 ESE 1028,2 10 0,0
15.10.2017 13:00:00 22,2 16,7 23 12 37 20 ESE 1028,7 16 0,0
15.10.2017 12:00:00 20,5 16,7 22 12 35 19 E 1028,9 16 0,0
15.10.2017 11:00:00 20,0 16,8 21 11 30 16 E 1028,8 10 0,0
15.10.2017 10:00:00 19,1 16,5 22 12 31 17 ENE 1028,6 11 0,0

tt = Température de l'air
td = dewpoint
ff = Vitesse du vent
fx = gusts
dd = Direction du vent
ppp = reduced air pressure
vv = visibility
rr = Quantités de précipitations

stations d'obs. à proximité